Frenchville, ME

2:59 AM EDT on August 17, 2017 (GMT -0400)
Northern Aroostook Regional

Weather History for KFVE - February, 2013

Change the Weather History Date:

Saturday, February 16, 2013

  Actual Average Record
Temperature  
Mean Temperature 25 °F 13 °F  
Max Temperature 30 °F 22 °F 46 °F (2016)
Min Temperature 19 °F 5 °F -18 °F (2003)
Degree Days  
Heating Degree Days 40    
Month to date heating degree days 873  
Since 1 July heating degree days 5980  
Cooling Degree Days 0    
Month to date cooling degree days 0  
Year to date cooling degree days 0  
Moisture  
Dew Point 20 °F    
Average Humidity 83    
Maximum Humidity 100    
Minimum Humidity 59    
Precipitation  
Precipitation 0.01 in 0.03 in 0.52 in (2016)
Month to date precipitation 0.13 0.36  
Year to date precipitation 1.11 2.12  
Sea Level Pressure  
Sea Level Pressure 29.86 in    
Wind  
Wind Speed 6 mph (SSW)    
Max Wind Speed 15 mph    
Max Gust Speed 20 mph    
Visibility 8 miles    
Events Fog , Snow    
T = Trace of Precipitation, MM = Missing Value Source: NWS Daily Summary

Daily Weather History Graph

Daily Weather History Graph

Search for Another Location

Airport or City:

Trip Planner

Search our weather history database for the weather conditions in past years. The results will help you decide how hot, cold, wet, or windy it might be!

Date:

Astronomy

Feb. 16, 2013 Rise Set
Actual Time 6:36 AM EST 4:59 PM EST
Civil Twilight 6:04 AM EST 5:30 PM EST
Nautical Twilight 5:29 AM EST 6:06 PM EST
Astronomical Twilight 4:53 AM EST 6:41 PM EST
Moon 9:17 AM EST (2/16) No Moon Set
Length of Visible Light 11h 25m
Length of Day
10h 22m
Waxing Crescent, 39% of the Moon is Illuminated
Feb 16
Waxing Crescent
Feb 17
First Quarter
Feb 25
Full
Mar 4
Last Quarter
Mar 11
New

Hourly Weather History & Observations

Time (EST) Temp. Windchill Dew Point Humidity Pressure Visibility Wind Dir Wind Speed Gust Speed Precip Events Conditions
12:53 AM 26.1 °F 20.5 °F 26.1 °F 100% 29.88 in 0.2 mi SE 4.6 mph - N/A Fog Light Freezing Fog
1:17 AM 24.8 °F 16.9 °F 24.8 °F 100% 29.85 in 2.0 mi SSE 6.9 mph - N/A   Mostly Cloudy
1:19 AM 26.6 °F 20.0 °F 24.8 °F 93% 29.85 in 3.0 mi SSE 5.8 mph - N/A   Mostly Cloudy
1:53 AM 26.1 °F 18.4 °F 24.1 °F 92% 29.88 in 10.0 mi South 6.9 mph - N/A   Mostly Cloudy
2:08 AM 26.6 °F 20.0 °F 24.8 °F 93% 29.85 in 10.0 mi South 5.8 mph - N/A   Overcast
2:22 AM 24.8 °F 20.5 °F 23.0 °F 93% 29.85 in 10.0 mi South 3.5 mph - N/A   Mostly Cloudy
2:53 AM 24.1 °F 16.0 °F 23.0 °F 96% 29.89 in 10.0 mi South 6.9 mph - N/A   Mostly Cloudy
3:05 AM 24.8 °F 17.9 °F 21.2 °F 86% 29.86 in 10.0 mi South 5.8 mph - N/A   Mostly Cloudy
3:53 AM 24.1 °F 17.0 °F 21.0 °F 88% 29.89 in 10.0 mi South 5.8 mph - N/A   Mostly Cloudy
4:07 AM 23.0 °F 14.7 °F 21.2 °F 93% 29.85 in 10.0 mi South 6.9 mph - N/A   Mostly Cloudy
4:49 AM 21.2 °F 13.6 °F 19.4 °F 93% 29.85 in 10.0 mi South 5.8 mph - N/A   Overcast
4:53 AM 21.9 °F 14.5 °F 19.0 °F 89% 29.89 in 10.0 mi South 5.8 mph - N/A   Overcast
5:53 AM 21.9 °F 14.5 °F 19.0 °F 89% 29.89 in 10.0 mi SSW 5.8 mph - N/A   Overcast
6:53 AM 21.9 °F 13.4 °F 19.0 °F 89% 29.90 in 10.0 mi South 6.9 mph - N/A   Overcast
7:53 AM 23.0 °F 17.0 °F 19.0 °F 85% 29.92 in 10.0 mi SSW 4.6 mph - N/A   Overcast
8:53 AM 24.1 °F 15.2 °F 21.0 °F 88% 29.93 in 10.0 mi SSW 8.1 mph - 0.00 in   Overcast
9:53 AM 25.0 °F 16.3 °F 21.9 °F 88% 29.92 in 10.0 mi SSW 8.1 mph - 0.00 in   Overcast
10:25 AM 26.6 °F 20.0 °F 21.2 °F 80% 29.87 in 10.0 mi South 5.8 mph - N/A   Overcast
10:53 AM 26.1 °F 18.4 °F 21.0 °F 81% 29.91 in 10.0 mi SW 6.9 mph - N/A   Overcast
11:53 AM 28.0 °F 22.8 °F 19.0 °F 69% 29.89 in 10.0 mi West 4.6 mph - N/A   Overcast
12:53 PM 28.9 °F 23.9 °F 19.0 °F 67% 29.88 in 10.0 mi Variable 4.6 mph - N/A   Overcast
1:30 PM 28.4 °F - 17.6 °F 64% 29.83 in 10.0 mi Calm Calm - N/A   Mostly Cloudy
1:53 PM 28.9 °F 21.9 °F 18.0 °F 64% 29.86 in 10.0 mi WNW 6.9 mph - N/A   Overcast
2:53 PM 28.9 °F 22.8 °F 17.1 °F 61% 29.86 in 10.0 mi SW 5.8 mph - N/A   Overcast
3:53 PM 28.9 °F 25.2 °F 17.1 °F 61% 29.86 in 10.0 mi South 3.5 mph - N/A   Mostly Cloudy
4:53 PM 28.0 °F 24.2 °F 18.0 °F 66% 29.87 in 10.0 mi East 3.5 mph - N/A   Mostly Cloudy
5:53 PM 27.0 °F 21.6 °F 19.0 °F 72% 29.88 in 10.0 mi SE 4.6 mph - N/A   Overcast
6:53 PM 27.0 °F 20.5 °F 21.9 °F 81% 29.87 in 10.0 mi ESE 5.8 mph - N/A   Overcast
7:43 PM 26.6 °F 20.0 °F 24.8 °F 93% 29.83 in 2.0 mi SSE 5.8 mph - 0.00 in Snow Light Snow
7:53 PM 26.1 °F 20.5 °F 24.1 °F 92% 29.87 in 2.0 mi SSE 4.6 mph - 0.00 in Snow Light Snow
8:02 PM 26.6 °F 22.6 °F 24.8 °F 93% 29.83 in 2.0 mi South 3.5 mph - 0.00 in Snow Light Snow
8:16 PM 24.8 °F 19.1 °F 24.8 °F 100% 29.83 in 4.0 mi South 4.6 mph - 0.00 in Snow Light Snow
8:27 PM 24.8 °F 20.5 °F 24.8 °F 100% 29.83 in 2.5 mi South 3.5 mph - 0.00 in Snow Light Snow
8:46 PM 24.8 °F 20.5 °F 23.0 °F 93% 29.82 in 2.5 mi South 3.5 mph - 0.00 in Snow Light Snow
8:53 PM 25.0 °F 20.7 °F 23.0 °F 92% 29.86 in 2.5 mi SSW 3.5 mph - 0.00 in Snow Light Snow
9:24 PM 24.8 °F 16.1 °F 19.4 °F 80% 29.82 in 4.0 mi WNW 8.1 mph - 0.01 in Snow Light Snow
9:42 PM 24.8 °F 15.3 °F 12.2 °F 59% 29.81 in 10.0 mi WNW 9.2 mph - 0.01 in   Overcast
9:53 PM 24.1 °F 13.7 °F 12.9 °F 62% 29.85 in 6.0 mi NW 10.4 mph - 0.01 in Snow Light Snow
10:13 PM 23.0 °F 11.7 °F 15.8 °F 74% 29.81 in 2.5 mi NW 11.5 mph - 0.00 in Snow Light Snow
10:53 PM 21.0 °F 9.3 °F 17.1 °F 85% 29.84 in 2.0 mi NNW 11.5 mph - 0.00 in Snow Light Snow
11:07 PM 19.4 °F 6.0 °F 14.0 °F 80% 29.79 in 5.0 mi North 13.8 mph - 0.00 in Snow Light Snow
11:15 PM 19.4 °F 6.6 °F 12.2 °F 74% 29.79 in 9.0 mi North 12.7 mph - 0.00 in   Overcast
11:53 PM 19.0 °F 6.8 °F 10.9 °F 71% 29.83 in 10.0 mi NNW 11.5 mph - 0.00 in   Overcast